Regional Weather Roundup
Issued by NWS Sioux Falls, SD

Home | Current Version | Previous Version | Graphics & Text | Print | Product List | Glossary Off
Versions: 1 2 3 4 5 6 7 8 9 10 11 12 13 14 15 16 17 18 19 20 21 22 23 24 25 26 27 28 29 30 31 32 33 34 35 36 37 38 39 40 41 42 43 44 45 46 47 48 49 50

000
ASUS43 KFSD 231710
RWRFSD

WEATHER ROUNDUP FOR SE SOUTH DAKOTA/SW MINNESOTA/NW IOWA
NATIONAL WEATHER SERVICE SIOUX FALLS SD
1200 PM CDT WED APR 23 2014

NOTE: "FAIR" INDICATES FEW OR NO CLOUDS BELOW 12,000 FEET WITH NO
SIGNIFICANT WEATHER AND OR OBSTRUCTIONS TO VISIBILITY.


SDZ038>040-050-052>070-231800-
SOUTHEAST SOUTH DAKOTA

CITY           SKY/WX    TMP DP  RH WIND       PRES   REMARKS
CHAMBERLAIN      N/A     65  41  41 S28G36    29.54F
HURON          CLOUDY    59  36  42 SE24G44   29.64F
MADISON        PTSUNNY   52  34  50 SE35G43   29.74S
MITCHELL       PTSUNNY   64  39  39 SE32G43   29.67F
SIOUX FALLS    CLOUDY    53  36  52 SE26G40   29.75F
WINNER         FAIR      70  41  34 S23G30    29.51F
YANKTON        PTSUNNY   61  39  44 SE36G45   29.68F
$$

MNZ071-072-080-081-089-090-097-098-231800-
SOUTHWEST MINNESOTA

CITY           SKY/WX    TMP DP  RH WIND       PRES   REMARKS
FAIRMONT       CLOUDY    46  32  57 SE23G32   29.96F
JACKSON        CLOUDY    46  32  57 SE18G26   29.93R
LUVERNE        CLOUDY    54  34  47 SE25G36   29.82F
MARSHALL       CLOUDY    45  34  65 SE21G26   29.89S
MONTEVIDEO     CLOUDY    43  39  87 S22       29.93F
PIPESTONE      CLOUDY    48  34  57 SE25G32   29.80F
REDWOOD FALLS  CLOUDY    43  36  76 SE20G26   29.95S
TRACY          CLOUDY    46  36  68 SE20      29.90F
WINDOM         CLOUDY    45  36  70 E16       29.92S
WORTHINGTON    CLOUDY    46  30  53 SE21G26   29.89F
$$

IAZ001>003-012>014-020>022-031-032-NEZ013-014-SDZ071-231800-
NORTHWEST IOWA

CITY           SKY/WX    TMP DP  RH WIND       PRES   REMARKS
CHEROKEE       CLOUDY    49  39  68 SE23      29.86F
DENISON        CLOUDY    48  41  76 SE21G32   29.84F
ESTHERVILLE    CLOUDY    49  34  56 SE28G36   29.92S
LE MARS        PTSUNNY   54  41  62 SE28G45   29.79F
ORANGE CITY    CLOUDY    54  37  54 SE20G30   29.80F
SHELDON        CLOUDY    50  36  57 SE30G38   29.83F
SIOUX CITY     PTSUNNY   55  42  61 SE26G39   29.79F
SPENCER        CLOUDY    51  33  50 SE28G38   29.89S
STORM LAKE     CLOUDY    46  39  76 SE28G44   29.87F
$$

ABBREVIATIONS USED IN REMARKS
   TC - TEMPERATURE IN CELSIUS
  WCI - WIND CHILL INDEX
   HX - HEAT INDEX
  VSB - VISIBILITY




USA.gov is the U.S. government's official web portal to all federal, state and local government web resources and services.